Hourly Data Report for June 16, 2012

All times are specified in Local Standard Time (LST). Add 1 hour to adjust for Daylight Saving Time where and when it is observed.

SAINT JOHN A
NEW BRUNSWICK

45°18'58.000" N
65°53'24.000" W
108.80 m
8104901
71609
YSJ

Download Data

Hourly Data (June 2012)
Hourly Data Report for June 16, 2012
Temp Definition
°C
Dew Point Temp Definition
°C
Rel Hum Definition
%
Wind Dir Definition
10's deg

Wind Spd Definition
km/h
Visibility Definition
km
Stn Press Definition
kPa
Hmdx Definition


Wind Chill Definition


Weather Definition


TIME
00:00 Legend Double Dagger 11.5 9.6 88 3 20 10.0 101.52     LegendNANA
01:00 Legend Double Dagger 11.4 9.8 90 1 14 10.0 101.52     LegendNANA
02:00 Legend Double Dagger 11.1 9.9 92 1 17 10.0 101.53     Cloudy
03:00 Legend Double Dagger 11.1 9.9 92 2 19 10.0 101.55     LegendNANA
04:00 Legend Double Dagger 11.1 10.0 93 3 11 10.0 101.53     LegendNANA
05:00 Legend Double Dagger 11.0 9.9 93 4 14 10.0 101.54     Mostly Cloudy
06:00 Legend Double Dagger 11.8 9.9 88 4 13 10.0 101.58     LegendNANA
07:00 Legend Double Dagger 12.5 9.7 83 6 13 10.0 101.64     LegendNANA
08:00 Legend Double Dagger 14.1 9.2 72 7 15 10.0 101.64     Mostly Cloudy
09:00 Legend Double Dagger 15.3 9.7 69 7 13 10.0 101.64     LegendNANA
10:00 Legend Double Dagger 15.5 9.5 67 4 14 10.0 101.63     LegendNANA
11:00 Legend Double Dagger 16.4 10.1 66 32 5 10.0 101.58     Mostly Cloudy
12:00 Legend Double Dagger 18.8 9.9 56 35 12 10.0 101.53     LegendNANA
13:00 Legend Double Dagger 18.9 9.5 54   0 10.0 101.52     LegendNANA
14:00 Legend Double Dagger 18.9 9.2 53 11 17 10.0 101.46     Mostly Cloudy
15:00 Legend Double Dagger 19.2 9.5 53 11 14 10.0 101.41     LegendNANA
16:00 Legend Double Dagger 19.1 8.8 51 11 23 10.0 101.37     LegendNANA
17:00 Legend Double Dagger 18.7 8.5 51 10 26 10.0 101.32     Mainly Clear
18:00 Legend Double Dagger 18.2 8.3 52 12 22 10.0 101.31     LegendNANA
19:00 Legend Double Dagger 17.0 8.5 57 9 15 10.0 101.31     LegendNANA
20:00 Legend Double Dagger 14.4 8.4 67 10 10 10.0 101.30     Mainly Clear
21:00 Legend Double Dagger 13.1 8.0 71 11 11 10.0 101.32     LegendNANA
22:00 Legend Double Dagger 12.9 8.0 72 12 14 10.0 101.35     LegendNANA
23:00 Legend Double Dagger 11.9 8.0 77 13 11 10.0 101.38     Mainly Clear

Notes on Data Quality.

Legend

  • E = Estimated
  • M = Missing
  • NA = Not Available
  • ‡ = Partner data that is not subject to review by the National Climate Archives
Date modified: